Find Starlink 2578

NORAD ID: 48362 Int'l Des: 2021-038 Owner: SPXS Country: US Constellation: starlink operational
LEOCIRCULAR

リアルタイム位置

3D地球を読み込み中...

Starlink 2578について

説明を読み込み中...

次回通過

Passes for default location (London). Set your location on the main map for personalized predictions.

高度履歴

Loading altitude history...

軌道要素

1 48362U 21038K 26122.24502338 .00000549 00000-0 29444-4 0 9992
2 48362 53.1599 109.1529 0001077 75.3755 284.7366 15.31702710275288
Epoch: May 2, 2026 • Age: 22 hours

現在のステータス

高度 474.8 km
速度 7.63 km/s
衛星直下点 45.55°N, 127.97°W
打ち上げ日 May 4, 2021
運用期間 4.9 years
タイプ internet

技術仕様

分類 Payload
質量 260.00 kg
乾燥質量 248.00 kg
総質量 260.00 kg
長さ 0.20 m
直径 2.80 m
スパン 9.00 m
形状 Box + pan
製造者 SPXS
バスタイプ Starlink
フェーズステータス In Orbit
所有者/国 SPXS/US

Most Searched